Location: New Plymouth
(39.0670°S, 174.0830°E)
Time: 06:03:46
(UTC+13:00)

STRAND 1 - Pass Details

Date: 02 September 2019
Orbit: 769 x 780 km, 98.5° (Epoch: 15 October)

Event Time Altitude Azimuth Distance (km) Brightness Sun altitude
Rises 19:58:41 0° 345° (NNW) 3,251 ? -23.4°
Reaches altitude 10° 20:01:19 10° 333° (NNW) 2,334 ? -23.9°
Maximum altitude 20:05:40 27° 275° (W) 1,469 ? -24.8°
Drops below altitude 10° 20:10:05 10° 218° (SW) 2,365 ? -25.6°
Sets 20:12:46 0° 205° (SSW) 3,302 ? -26.1°
